Location: Chircca
(13.7944°S, 72.0608°W)
Time: 06:19:02
(UTC+00:00)

SKYMED 2 - Pass Details

Date: 14 July 2020
Orbit: 621 x 623 km, 97.9° (Epoch: 14 August)

Event Time Altitude Azimuth Distance (km) Brightness Sun altitude
Rises 10:35:14 0° 169° (S) 2,915 6.9 -9.3°
Reaches altitude 10° 10:37:26 10° 169° (SSE) 2,004 6.1 -8.8°
Maximum altitude 10:41:48 90° 304° (WNW) 629 3.6 -7.8°
Drops below altitude 10° 10:46:08 10° 348° (NNW) 1,985 6.3 -6.9°
Sets 10:48:18 0° 348° (NNW) 2,885 7.1 -6.4°
